TimePDT,TemperatureF,Dew PointF,Humidity,Sea Level PressureIn,VisibilityMPH,Wind Direction,Wind SpeedMPH,Gust SpeedMPH,PrecipitationIn,Events,Conditions,WindDirDegrees,DateUTC
12:53 AM,75.0,55.9,51,29.86,10.0,SE,3.5,-,N/A,,Clear,140,2013-06-29 07:53:00
1:53 AM,72.0,57.0,59,29.86,10.0,Calm,Calm,-,N/A,,Clear,0,2013-06-29 08:53:00
2:53 AM,70.0,57.9,65,29.85,10.0,Calm,Calm,-,N/A,,Clear,0,2013-06-29 09:53:00
3:53 AM,72.0,55.9,57,29.85,10.0,Calm,Calm,-,N/A,,Clear,0,2013-06-29 10:53:00
4:53 AM,68.0,57.0,68,29.86,10.0,SSE,3.5,-,N/A,,Clear,160,2013-06-29 11:53:00
5:53 AM,69.1,55.9,63,29.86,10.0,Calm,Calm,-,N/A,,Clear,0,2013-06-29 12:53:00
6:53 AM,72.0,57.0,59,29.87,10.0,Calm,Calm,-,N/A,,Clear,0,2013-06-29 13:53:00
7:53 AM,77.0,57.0,50,29.88,10.0,Calm,Calm,-,N/A,,Clear,0,2013-06-29 14:53:00
8:53 AM,82.9,57.0,41,29.88,10.0,Calm,Calm,-,N/A,,Clear,0,2013-06-29 15:53:00
9:53 AM,89.1,57.9,35,29.88,10.0,Variable,3.5,-,N/A,,Clear,0,2013-06-29 16:53:00
10:53 AM,93.0,59.0,32,29.87,10.0,NW,6.9,-,N/A,,Clear,310,2013-06-29 17:53:00
11:53 AM,97.0,60.1,29,29.86,10.0,WNW,8.1,-,N/A,,Clear,300,2013-06-29 18:53:00
12:53 PM,99.0,61.0,28,29.84,10.0,NW,10.4,-,N/A,,Clear,310,2013-06-29 19:53:00
1:53 PM,102.0,59.0,24,29.83,10.0,NW,8.1,-,N/A,,Clear,310,2013-06-29 20:53:00
2:53 PM,104.0,55.9,20,29.80,10.0,NW,10.4,-,N/A,,Clear,320,2013-06-29 21:53:00
3:53 PM,105.1,53.1,18,29.78,10.0,NNW,9.2,-,N/A,,Clear,330,2013-06-29 22:53:00
4:53 PM,106.0,51.1,16,29.76,10.0,West,6.9,-,N/A,,Clear,280,2013-06-29 23:53:00
5:53 PM,107.1,48.0,14,29.74,10.0,West,8.1,-,N/A,,Clear,280,2013-06-30 00:53:00
6:53 PM,105.1,52.0,17,29.73,10.0,WSW,6.9,-,N/A,,Clear,240,2013-06-30 01:53:00
7:53 PM,97.0,59.0,28,29.74,10.0,SSW,9.2,-,N/A,,Clear,210,2013-06-30 02:53:00
8:53 PM,91.0,55.0,29,29.74,10.0,SSW,8.1,-,N/A,,Clear,210,2013-06-30 03:53:00
9:53 PM,86.0,55.0,35,29.75,10.0,SW,8.1,-,N/A,,Clear,220,2013-06-30 04:53:00
10:53 PM,82.0,55.9,41,29.76,10.0,SW,6.9,-,N/A,,Clear,230,2013-06-30 05:53:00
11:53 PM,79.0,55.9,45,29.75,10.0,SW,5.8,-,N/A,,Clear,230,2013-06-30 06:53:00